Home > Weather > Galle > Past weeks

Flag for Sri Lanka Past Weather in Galle, Sri Lanka — Yesterday and Last 2 Weeks

Now
81 °F

Passing clouds.


Feels Like: 86 °F
Forecast: 78 / 82 °F
Wind: 9 mph from Southwest

Location: Katunayake

Current Time: Jul 29, 2016 at 11:23:33 PM

Latest Report: Jul 29, 2016 at 10:40 PM


Visibility: N/A

Pressure: 29.80 "Hg

Humidity: 84%

Dew Point: 75 °F

Location of GalleLocation

Past Weather in Galle — Graph

°F

Galle Temperature Yesterday

Maximum temperature yesterday: 86 °F (at 11:40 AM)
Minimum temperature yesterday: 77 °F (at 5:40 AM)
Average temperature yesterday: 82 °F

High & Low Weather Summary for the Past Weeks

 TemperatureHumidityPressure
High86 °F (Jul 16, 1:40 PM)94% (Jul 27, 1:40 AM)29.92 "Hg (Jul 27, 1:40 AM)
Low77 °F (Jul 17, 5:40 AM)62% (Jul 16, 1:40 PM)29.71 "Hg (Jul 24, 4:40 PM)
Average82 °F77%29.79 "Hg
* Reported Jul 14 9:40 PM — Jul 29 9:40 PM, Galle, Weather by CustomWeather, © 2016

Note: Actual official high and low records may vary slightly from our data, if they occured in-between our weather recording intervals... More about our weather records

Advertising

Galle Weather History for the Previous 24 Hours

Scroll right to see more
 ConditionsComfort  
Time TempWeatherWind HumidityBarometerVisibility
9:40 PM
Fri, Jul 29
81 °FPassing clouds.8 mph84%29.80 "HgN/A
8:40 PM81 °FPassing clouds.10 mph84%29.80 "HgN/A
7:40 PM81 °FPassing clouds.10 mph79%29.77 "HgN/A
6:40 PM81 °FPassing clouds.12 mph79%29.77 "HgN/A
5:40 PM82 °FPartly sunny.12 mph74%29.74 "HgN/A
4:40 PM82 °FMostly cloudy.10 mph74%29.74 "HgN/A
3:40 PM82 °FBroken clouds.13 mph74%29.71 "HgN/A
2:40 PM84 °FPassing clouds.10 mph70%29.74 "HgN/A
1:40 PM86 °FPassing clouds.9 mph70%29.77 "HgN/A
12:40 PM84 °FPassing clouds.9 mph74%29.80 "HgN/A
11:40 AM84 °FPartly sunny.9 mph70%29.80 "HgN/A
10:40 AM84 °FScattered clouds.8 mph70%29.83 "HgN/A
9:40 AM82 °FPartly sunny.8 mph74%29.83 "HgN/A
8:40 AM82 °FPartly sunny.7 mph79%29.83 "Hg6 mi
7:40 AM81 °FPartly sunny.8 mph84%29.80 "Hg6 mi
6:40 AM81 °FScattered clouds.9 mph79%29.77 "HgN/A
5:40 AM81 °FScattered clouds.8 mph79%29.77 "HgN/A
4:40 AM81 °FPassing clouds.8 mph79%29.77 "HgN/A
3:40 AM79 °FPassing clouds.3 mph89%29.77 "HgN/A
2:40 AM79 °FPassing clouds.5 mph89%29.77 "HgN/A
1:40 AM81 °FPassing clouds.7 mph84%29.77 "HgN/A
12:40 AM81 °FPassing clouds.9 mph84%29.80 "HgN/A
11:40 PM
Thu, Jul 28
81 °FPassing clouds.10 mph84%29.80 "HgN/A
Weather by CustomWeather, © 2016

See weather overviewHow to use our weather pages